Location: Seattle
(47.6064°N, 122.3308°W)
Time: 11:27:40
(UTC-07:00)

Explorer 7 - Pass Details

Date: 02 August 2021
Orbit: 484 x 676 km, 50.3° (Epoch: 22 September)

Event Time Altitude Azimuth Distance (km) Brightness Sun altitude
Exits shadow 04:41:00 - 184° (S) 1,949 9.2 -10.2°
Reaches altitude 10° 04:42:03 10° 173° (S) 1,666 9.0 -10.1°
Maximum altitude 04:44:18 15° 136° (SE) 1,381 8.9 -9.8°
Drops below altitude 10° 04:46:35 10° 99° (E) 1,702 9.9 -9.5°
Sets 04:49:31 0° 76° (ENE) 2,621 11.6 -9.1°
